カタログに戻る

STARLINK-37102

運用中通信VLEO
NORAD 68183·PAYLOAD·🇺🇸 United States

打ち上げ Mar 14, 2026 から Vandenberg Space Force Base

Loading…

次のパス (今後24時間)

TLE

最新Source: CelesTrak SupGP

元期: Sep 15, 2026, 03:08 UTC

1 68183C 26050S   26258.13104167  .00005042  00000+0  14894-3 0  2582
2 68183  53.1567 102.7568 0001141  85.8283 312.8164 15.34390803    17

AllMySatでSTARLINK-37102をリアルタイム追跡

Download on the App Store